Starlink 31635

operational
NORAD ID: 59511 Int'l Des: 2024-073 Owner: SPXS Country: US Constellation: starlink
LEOCIRCULAR

About Starlink 31635

Description loading...

Live Position

Loading 3D Globe...

Upcoming Passes

Altitude History

Altitude vs Time

uPlot chart will show altitude changes over time

Two-Line Element Set

1 59511U 24073A 25302.80983843 .00002758 00000-0 10974-3 0 9998
2 59511 43.0007 336.7851 0001093 244.5124 115.5615 15.27570742 86160
Epoch: Oct 29, 2025 • Age: 47 hours

Current Status

Altitude 485.9 km
Velocity 7.63 km/s
Sub-Earth Point 38.58°N, 61.58°E
Launch Date Apr 17, 2024
Age 1.5 years
Type internet

Technical Details

Classification Payload
Mass 730.00 kg
Dry Mass 700.00 kg
Total Mass 730.00 kg
Length 0.30 m
Diameter 4.10 m
Span 29.00 m
Shape Box + pan
Manufacturer SPXS
Bus Type Starlink V2M
Phase Status In Orbit
Owner/State SPXS/US

Large Constellations

Loading constellations...